Wind_Speed
13 13 13 12 11 10 8 7 7 8 7 7 7 9 10 10 10 10 10 8 7 7 7 7 7 8 9 8 8 8 9 10 10 12 12 9 7 10 12 17 19 20 23 23 22 20 17 16 16 16 15 12 11 9 8 6 5 3 3 2 1 4 6 7 7 6 3 8 10 11 12 11 10 10 10 11 10 13 12 10 9 8 8 12 18 26 29 28
14 14 14 13 12 10 9 7 7 7 7 7 7 8 9 10 10 10 10 10 8 7 7 7 7 7 8 8 7 8 9 9 10 11 9 6 6 11 15 19 19 21 24 25 23 20 19 18 18 18 15 12 10 9 7 6 6 4 4 0 3 5 6 7 8 8 5 7 12 10 10 11 11 12 12 11 12 13 12 11 11 12 14 16 22 27 28 27
14 14 14 14 13 11 9 8 7 7 7 7 7 8 9 10 11 10 10 10 10 9 7 7 7 6 6 7 7 8 8 8 8 5 5 6 7 11 15 20 20 21 24 24 22 18 17 18 19 18 15 11 9 9 7 6 6 5 4 0 5 5 6 8 8 7 5 5 13 10 10 11 10 11 10 10 12 12 10 12 13 14 17 19 23 27 28 27
14 14 14 14 13 12 10 9 8 7 7 7 8 8 10 11 11 11 11 10 10 9 8 8 8 6 5 5 7 7 7 6 3 2 4 6 8 11 17 20 21 22 23 21 19 16 14 16 18 16 13 10 9 8 7 7 4 2 3 1 6 5 6 9 8 5 3 4 11 11 11 10 9 9 8 11 11 8 9 12 14 17 21 23 26 28 27 26
15 14 14 13 13 12 11 9 8 8 7 7 8 9 10 11 12 12 12 11 10 9 8 8 7 6 5 4 5 5 6 3 3 2 4 5 8 11 18 21 23 24 22 21 19 16 14 16 16 15 11 9 9 7 6 7 5 3 2 2 4 4 5 7 6 4 4 6 9 10 10 9 9 7 8 11 7 5 9 11 13 18 22 25 28 28 26 26
15 14 14 13 13 12 11 10 9 8 8 8 9 10 10 11 12 12 12 12 10 8 8 8 7 6 5 4 4 4 4 2 3 2 3 2 7 13 19 22 26 25 23 22 19 16 16 16 16 14 11 8 9 8 6 8 6 4 2 1 3 4 5 5 5 3 4 8 8 8 9 9 7 6 8 8 2 6 8 11 13 17 21 25 26 27 27 26
16 15 15 14 13 12 11 11 10 10 10 10 10 10 11 11 12 12 12 12 11 9 7 7 7 5 4 4 3 3 4 3 2 2 2 4 8 14 20 23 27 26 24 23 20 18 17 18 16 13 10 7 9 9 7 9 7 5 1 2 3 5 4 5 3 3 4 8 9 7 9 10 8 5 8 7 3 5 8 12 14 17 21 24 24 25 25 25
15 16 15 15 14 13 12 12 11 11 11 11 11 11 12 12 12 12 11 11 10 8 7 6 6 4 4 3 3 4 5 2 1 1 3 5 10 15 21 23 25 25 23 22 20 19 17 18 16 13 9 6 8 9 7 8 8 6 3 2 3 4 4 4 1 3 6 7 9 9 8 10 10 6 7 7 5 6 9 13 16 18 21 23 23 24 24 24
15 15 15 15 15 14 13 13 12 12 12 12 12 12 13 12 12 11 10 9 8 8 6 5 4 3 4 2 4 6 6 5 3 3 5 6 11 15 20 22 24 23 22 21 19 18 17 17 16 11 7 5 8 9 8 8 5 5 3 4 5 5 5 3 1 5 7 7 8 9 8 9 10 7 7 8 6 8 11 14 17 19 21 21 22 23 23 23
15 15 15 15 15 14 14 13 13 13 13 13 12 12 13 12 12 10 9 7 7 7 5 5 3 4 3 2 6 5 7 8 5 5 6 7 11 15 18 22 24 21 20 19 18 18 15 14 14 9 4 5 9 9 9 6 1 2 4 6 4 5 5 2 3 7 7 8 9 9 8 9 10 7 6 9 9 10 13 15 17 18 19 20 21 22 22 22
16 15 15 15 14 14 14 14 14 13 14 13 12 12 12 12 11 10 8 6 6 6 5 4 3 3 2 3 8 3 8 10 7 7 8 8 9 13 17 22 22 18 18 18 17 17 14 11 12 9 3 5 9 8 8 5 1 2 6 5 2 3 2 2 5 9 7 7 10 8 7 8 9 6 5 11 12 12 14 15 17 17 17 19 20 21 20 21
17 16 15 15 15 14 14 14 14 14 14 13 13 12 11 11 10 9 7 5 4 5 4 3 4 3 3 5 9 3 8 11 9 9 10 9 8 11 14 19 19 15 16 16 16 15 12 10 12 10 2 5 8 5 6 5 4 5 7 4 3 2 3 5 5 9 7 6 10 9 7 7 8 6 6 12 13 13 14 15 16 17 17 18 19 20 20 20
17 17 16 15 15 14 14 14 14 14 13 13 12 11 11 10 9 8 5 4 3 4 3 3 3 4 4 4 7 6 8 10 10 9 11 11 10 11 13 17 15 13 13 13 13 14 11 10 13 9 2 5 7 2 2 6 7 6 6 5 3 5 4 5 5 8 7 7 12 9 4 5 9 9 8 12 14 14 15 15 16 16 16 18 19 19 19 20
18 17 17 16 15 14 13 14 14 14 13 12 10 10 11 8 7 6 3 2 2 3 3 3 3 5 4 2 6 10 8 9 12 10 11 13 11 11 13 14 13 11 10 9 11 12 9 10 12 9 5 6 3 1 4 7 7 5 5 4 4 4 4 4 5 8 7 7 12 10 2 4 9 10 10 12 15 15 15 15 15 16 16 17 18 18 19 20
18 17 17 17 15 14 13 13 14 13 12 10 8 10 10 7 6 2 2 2 2 2 3 3 3 4 5 4 7 10 7 8 12 12 11 12 12 11 12 13 12 11 9 7 9 10 8 9 11 10 8 5 4 5 6 6 7 5 5 5 5 2 3 3 6 8 6 7 12 10 1 5 6 9 11 12 14 15 14 15 15 15 16 17 18 18 19 19
18 17 17 17 16 14 12 12 13 11 10 8 7 9 9 7 3 3 3 4 4 3 4 1 2 3 4 4 8 8 7 7 11 13 12 12 10 10 12 12 11 11 8 6 8 9 8 9 10 9 8 6 6 7 5 6 8 7 6 6 6 4 3 4 7 9 5 6 10 8 0 4 3 7 12 12 14 15 14 14 15 15 16 17 17 17 18 19
18 18 17 16 15 13 11 12 12 10 7 5 5 7 7 5 1 4 3 4 2 2 3 1 3 4 3 4 8 8 9 9 12 14 14 13 9 10 13 13 11 12 9 6 8 10 10 10 8 6 7 6 6 6 7 8 8 7 7 4 4 4 5 5 7 9 8 6 8 6 2 2 2 4 10 13 14 16 15 14 15 15 15 16 16 17 18 19
19 18 17 16 15 13 11 11 11 8 5 3 4 5 4 2 2 4 4 3 2 2 2 3 5 4 3 8 8 9 11 10 12 13 14 14 11 11 12 12 13 14 11 8 9 12 12 10 8 7 7 7 6 6 7 8 9 10 9 5 4 5 3 4 5 8 10 8 6 5 4 4 3 4 8 12 14 15 15 14 15 15 15 16 16 17 18 18
20 20 18 16 15 13 10 10 10 7 3 1 2 4 2 0 2 3 4 3 4 4 1 6 10 2 4 12 9 9 11 11 12 13 15 14 13 12 10 10 15 16 13 9 11 14 13 9 9 7 8 9 8 9 7 4 5 7 8 5 5 5 3 5 6 7 8 8 6 6 6 7 7 6 7 11 13 14 14 13 14 14 15 16 16 16 18 19
20 19 17 15 13 11 10 10 9 6 2 2 1 3 3 2 3 4 6 7 10 9 6 4 10 3 6 12 8 8 11 11 11 12 15 16 15 14 10 11 16 15 11 9 10 14 13 9 8 8 9 11 10 9 5 2 2 3 5 4 3 5 5 6 7 7 6 7 7 9 9 7 8 8 7 9 11 13 15 15 15 15 15 16 16 16 17 18
18 17 15 13 11 9 9 9 8 4 4 3 2 3 3 3 3 0 3 9 11 11 9 6 9 8 3 6 5 8 11 11 11 13 15 16 16 14 11 13 14 10 10 11 11 12 12 9 9 10 8 9 9 6 4 3 3 5 5 5 5 4 6 7 6 6 6 6 5 8 8 7 8 7 6 9 11 13 15 17 17 17 16 16 16 17 17 17
17 16 14 13 11 10 9 8 6 3 6 5 3 2 1 2 2 3 4 6 6 8 9 7 9 9 5 3 5 10 12 11 13 14 15 17 16 12 11 13 11 8 10 12 10 9 9 9 11 11 7 7 7 6 5 5 6 6 5 5 5 4 6 7 5 5 5 5 3 5 4 6 11 9 9 13 12 12 15 17 16 17 17 16 17 17 18 17
18 16 15 13 12 10 8 6 4 5 8 7 4 3 1 1 1 4 6 6 4 5 7 7 8 7 6 5 7 13 13 12 14 15 16 17 15 11 12 12 10 9 11 11 10 9 9 9 11 11 8 8 8 7 7 6 6 6 5 6 6 6 4 4 6 5 4 4 1 1 3 5 12 10 9 13 13 12 14 16 16 17 17 16 17 17 18 19
18 16 16 15 13 10 6 4 3 8 10 8 5 4 3 1 2 6 5 6 2 4 6 6 6 6 6 6 9 12 11 9 11 15 18 17 13 10 12 11 9 9 10 13 13 10 8 7 11 12 9 10 9 8 8 7 7 8 6 7 5 6 3 0 5 4 4 4 2 3 5 5 9 10 9 9 12 11 12 14 16 16 16 16 16 16 18 19
17 16 17 16 15 11 5 1 5 10 10 7 5 4 3 1 3 5 5 6 3 5 5 6 6 4 5 7 8 9 9 7 6 14 18 15 12 10 9 9 8 8 11 14 13 9 6 6 12 12 10 10 9 8 10 9 7 8 9 9 6 2 3 2 2 3 5 6 5 5 5 5 7 8 8 7 9 10 10 12 14 15 15 16 16 17 18 18
15 16 16 17 17 11 5 3 6 12 10 5 5 5 3 2 5 6 5 5 4 5 6 8 7 6 6 7 8 9 10 7 5 11 14 12 10 7 7 8 6 6 11 12 8 6 6 8 12 12 10 11 9 8 10 9 8 7 7 9 8 6 6 5 4 5 4 2 4 4 5 4 7 5 4 7 8 8 9 9 11 13 14 15 16 17 18 18
15 16 15 16 15 9 4 2 5 11 8 6 7 5 3 4 6 6 5 5 5 4 5 7 5 6 6 7 10 9 8 11 9 8 9 11 10 8 7 8 6 5 10 9 6 5 7 10 11 11 10 10 8 8 8 9 9 4 6 6 9 9 9 8 6 6 3 0 3 5 5 3 5 5 3 6 7 6 7 6 9 11 13 15 16 17 17 19
16 16 15 14 12 8 3 2 5 7 6 6 8 6 4 5 5 5 6 4 5 2 4 5 3 5 6 6 8 5 8 15 10 6 6 9 9 9 9 8 8 9 10 9 6 7 8 9 10 11 10 8 8 8 7 10 10 1 5 3 6 7 9 9 7 6 2 2 5 7 5 3 4 6 5 6 6 6 5 4 5 10 13 15 16 17 17 18
16 16 15 13 10 7 4 3 6 5 6 6 7 6 5 5 4 6 6 2 3 2 3 5 6 7 8 8 8 7 9 8 4 7 8 8 6 7 4 5 7 10 13 11 5 7 7 3 6 9 7 4 4 4 4 9 10 1 3 4 4 4 7 7 6 5 3 4 6 7 8 5 4 5 5 6 5 4 3 2 2 4 10 14 15 16 17 18
15 15 14 12 9 8 5 3 2 3 5 6 6 6 5 4 5 6 4 2 2 4 4 3 5 8 11 10 8 8 8 8 8 10 8 6 7 5 2 5 6 8 12 11 3 6 8 6 4 2 2 4 2 1 3 8 7 2 4 6 5 5 5 6 5 4 4 6 7 7 8 7 2 4 5 6 5 5 4 3 5 4 3 9 15 17 18 20
12 13 12 11 9 8 5 2 1 1 2 3 4 5 6 5 6 5 3 2 1 5 5 4 6 9 12 11 8 8 9 9 7 8 8 8 8 7 5 6 7 7 9 8 4 7 9 7 5 4 4 4 3 5 5 8 7 5 7 7 6 6 5 5 5 4 6 7 6 7 6 5 2 3 5 6 6 6 5 5 6 7 7 4 8 14 17 19
10 11 12 10 8 7 4 2 3 2 2 3 3 6 7 6 4 1 5 2 2 3 3 4 7 9 10 11 8 8 8 7 6 5 6 7 5 5 3 0 3 6 7 8 8 8 7 5 6 5 3 3 4 8 7 8 9 7 8 8 7 7 6 7 7 6 7 4 4 7 7 3 4 6 5 7 7 8 7 7 8 8 9 8 5 8 14 17
8 9 11 11 8 6 5 4 3 3 4 4 6 7 7 4 3 3 3 2 1 3 2 4 9 11 12 11 9 9 9 7 5 5 5 5 6 6 5 7 5 4 5 8 9 8 6 5 4 4 3 4 4 5 5 7 10 9 8 9 8 7 8 9 8 7 8 5 5 5 7 6 7 6 5 6 9 10 10 10 10 10 9 8 7 5 9 15
7 8 11 11 8 6 6 4 3 4 5 7 7 7 5 2 4 1 3 6 5 5 4 6 10 11 10 9 6 6 6 6 5 4 5 5 6 5 5 8 8 7 3 7 7 6 6 6 2 1 1 3 4 3 3 2 8 10 8 7 8 6 7 8 8 8 9 7 7 6 5 6 8 6 5 7 10 12 13 13 12 11 11 9 8 8 3 8
7 9 12 12 9 6 5 2 0 3 6 8 7 3 2 4 4 2 4 6 3 6 8 7 9 11 9 7 6 3 3 4 5 5 6 5 5 5 3 6 9 8 3 4 5 3 4 6 5 4 3 4 4 3 5 4 5 7 6 7 6 3 4 4 4 6 8 7 7 6 2 3 8 8 6 8 10 12 14 15 15 15 14 12 10 12 11 5
8 9 10 12 11 7 3 2 3 5 6 8 4 4 4 4 4 4 4 4 1 5 9 10 8 8 8 6 7 6 4 4 5 5 7 7 8 8 5 5 8 8 5 2 3 3 3 6 6 3 3 4 4 3 3 3 2 4 6 6 1 3 4 3 2 3 7 7 7 7 6 8 9 9 7 6 8 11 14 16 18 18 17 15 14 14 13 12
8 6 7 12 11 5 2 2 5 5 5 6 2 6 3 4 5 6 5 4 3 1 6 8 3 2 7 7 6 8 7 6 4 3 4 5 5 7 6 5 7 8 7 4 0 1 1 5 6 3 4 5 2 1 1 2 3 2 5 4 3 2 3 4 3 5 8 7 7 8 10 9 8 6 5 4 7 11 12 15 17 19 19 17 17 16 14 14
7 3 5 13 11 5 2 4 5 3 5 1 7 6 3 5 6 6 5 5 3 5 5 5 1 2 5 8 7 7 5 4 3 3 4 3 3 6 5 4 6 8 7 6 2 1 2 3 7 3 2 4 2 3 3 3 2 3 1 1 1 4 5 5 5 6 9 9 7 9 10 7 3 3 4 5 8 10 11 13 15 18 20 19 18 18 17 15
5 1 4 11 10 5 3 4 2 2 2 3 7 5 4 7 8 8 6 4 3 4 2 4 3 1 3 5 8 6 1 2 4 4 2 2 3 5 6 3 4 7 8 7 3 1 2 2 5 4 2 3 3 2 1 3 2 1 2 2 3 4 2 4 5 4 7 9 7 8 9 5 4 4 5 7 8 9 9 10 12 16 19 19 19 20 19 17
4 2 5 7 7 6 3 2 1 1 3 5 5 4 4 6 8 11 8 4 3 4 3 4 3 4 5 5 7 5 4 5 5 3 3 3 3 5 6 5 5 7 7 5 3 1 3 3 3 6 5 4 2 3 4 4 2 2 4 4 4 3 2 2 4 3 4 6 7 8 9 5 5 4 4 6 7 8 9 9 11 15 18 19 20 20 20 20
5 2 5 4 5 7 3 2 5 4 5 6 6 7 5 4 6 9 10 8 6 7 6 6 5 6 6 5 6 5 4 6 5 4 5 3 2 4 6 8 7 7 6 2 2 3 2 2 2 5 5 3 4 5 5 5 6 4 1 1 1 3 4 5 6 5 4 5 4 6 7 6 5 4 4 6 6 7 9 10 11 15 17 18 19 20 20 21
4 1 4 4 7 7 2 3 6 4 5 5 5 7 5 4 6 7 9 9 7 8 8 8 8 7 5 5 6 6 5 5 4 4 5 5 6 6 6 8 7 6 6 1 4 5 4 1 2 4 4 5 7 4 3 3 4 3 3 3 3 3 3 5 6 5 6 4 3 2 5 6 5 5 6 6 7 8 9 11 12 14 17 17 18 19 20 21
4 4 5 5 4 3 1 4 6 4 6 6 4 7 6 5 7 7 7 8 7 6 6 7 7 6 5 5 5 7 5 5 5 5 6 8 8 7 7 8 7 6 5 1 3 3 3 1 3 5 4 4 5 3 1 1 3 2 3 4 3 2 2 4 4 3 5 5 3 5 5 6 5 6 7 8 9 9 9 11 12 13 15 16 18 19 20 21
6 6 7 6 3 2 3 2 5 4 5 6 6 7 8 9 10 9 9 9 7 5 6 7 6 6 6 5 5 5 3 2 4 5 5 6 6 6 7 8 7 5 5 4 3 3 2 1 1 3 5 5 5 5 4 3 2 1 3 4 4 3 2 4 3 4 5 1 3 7 5 7 6 7 7 8 11 11 11 12 12 13 14 15 17 18 19 21
1 3 7 9 7 4 4 4 4 5 6 7 7 7 7 8 9 10 11 11 10 7 6 6 6 7 6 5 6 5 3 2 4 3 4 6 6 6 7 8 8 7 8 7 6 5 2 2 2 3 4 4 4 3 2 2 3 3 3 4 4 4 3 3 2 5 5 1 3 4 4 9 9 8 8 8 9 10 11 12 12 13 14 15 16 17 18 20
2 1 4 7 9 10 9 6 4 4 5 5 5 5 5 7 7 8 9 9 10 10 8 7 5 5 6 5 7 7 6 6 5 5 6 6 5 5 6 7 8 9 7 6 6 4 0 2 3 4 3 2 3 4 4 2 2 3 3 4 4 5 3 3 3 4 3 3 3 4 7 13 12 8 8 8 7 8 10 12 12 13 13 14 15 16 18 20
2 2 2 3 5 7 7 5 5 3 2 1 2 2 4 6 5 5 7 6 7 7 7 6 4 2 4 5 6 7 8 8 8 8 7 6 6 6 5 6 7 7 5 4 4 3 2 2 2 3 5 6 6 6 4 3 2 3 3 2 3 4 3 3 1 2 2 2 4 5 7 12 11 7 6 7 7 7 9 11 12 12 13 14 15 16 17 19
2 2 3 2 2 2 4 4 4 4 3 3 2 1 3 5 5 5 6 5 5 3 3 5 6 5 5 4 3 6 7 8 8 6 6 6 5 5 5 6 6 5 2 3 4 3 2 2 2 3 5 6 6 5 3 2 2 2 2 2 3 3 2 3 4 4 4 1 5 8 7 9 9 7 6 6 6 7 9 10 11 12 13 13 14 16 17 19
5 5 4 3 2 4 5 4 3 3 5 4 3 2 3 5 6 5 4 3 5 5 3 4 7 6 5 3 2 5 5 3 5 5 5 5 4 2 3 4 5 4 2 3 4 2 2 2 3 3 5 6 5 4 3 1 1 2 1 1 1 1 2 4 4 5 5 6 9 10 9 8 7 5 5 5 4 6 7 7 9 11 12 13 14 15 17 18
5 4 4 4 6 6 5 3 1 2 4 2 2 3 3 4 6 6 4 3 4 5 4 6 8 7 6 6 5 6 5 4 5 7 4 4 3 1 1 2 3 4 3 2 3 2 3 1 3 3 4 4 3 2 2 1 1 3 2 2 2 2 3 3 3 4 5 6 9 10 9 8 4 3 5 4 3 4 5 6 7 9 10 11 12 14 16 17
9 8 5 3 4 3 2 2 1 1 3 2 2 4 4 4 7 7 6 7 6 6 6 8 9 7 8 9 9 9 8 7 8 8 5 3 3 2 2 2 1 1 2 2 1 1 1 2 4 4 4 4 3 1 1 1 2 4 5 5 5 4 3 3 3 2 1 5 9 8 6 6 5 4 5 3 2 3 5 6 6 7 9 10 11 12 14 15
8 6 2 0 1 1 1 1 1 1 2 3 3 4 4 6 7 5 5 7 8 8 8 7 7 6 7 10 10 8 8 8 8 8 5 5 5 4 4 3 2 2 2 2 1 1 0 2 4 4 3 3 4 1 1 2 5 5 4 5 4 4 3 3 4 2 1 1 4 4 3 6 6 3 3 2 2 4 5 5 6 7 8 9 10 11 12 13
Wind_Direction
2 358 356 352 346 338 329 317 313 314 310 308 314 318 322 326 329 330 325 314 305 302 303 305 304 301 295 288 289 287 291 290 287 285 278 276 249 220 193 186 186 179 177 173 172 168 159 164 167 165 168 177 192 191 190 204 210 226 237 228 29 38 33 7 11 36 83 124 130 152 159 147 139 141 138 139 137 134 131 127 127 121 113 120 131 141 145 148
3 1 2 0 356 349 338 328 320 317 311 308 311 314 318 321 325 327 326 318 305 300 299 304 302 301 297 290 294 294 297 295 292 288 275 269 237 215 193 183 182 178 175 174 174 169 163 167 167 167 172 177 180 182 184 188 198 226 263 227 60 32 43 19 15 46 48 120 136 155 159 150 144 144 153 151 141 141 134 130 131 121 120 125 133 142 146 149
1 1 1 1 1 355 346 338 329 325 318 312 312 315 317 318 320 321 324 318 306 300 298 302 304 298 293 293 296 298 305 303 299 287 260 260 234 210 193 181 176 176 177 176 172 169 168 167 167 170 178 180 174 184 191 190 199 215 255 38 70 19 43 43 24 51 48 120 142 151 157 152 142 147 164 156 145 152 147 145 146 135 136 141 143 147 148 152
358 359 358 357 358 355 352 346 337 332 322 316 314 316 318 318 318 317 319 316 305 299 299 301 305 299 288 290 293 303 310 294 267 213 247 258 237 205 187 177 171 171 174 174 169 168 170 166 170 176 185 183 172 191 199 192 208 216 253 20 62 11 28 45 26 49 68 146 149 149 154 149 145 152 163 159 154 158 157 156 155 146 147 151 151 152 152 154
355 355 353 352 352 351 351 347 341 333 323 318 316 317 317 316 315 315 315 312 303 296 299 299 305 301 284 282 289 302 299 274 139 187 276 253 223 192 180 173 166 165 170 172 167 167 168 169 175 182 194 185 168 193 207 196 224 256 249 6 32 1 15 34 29 54 96 146 148 155 155 141 149 154 162 174 162 137 149 154 153 149 152 155 154 154 155 157
351 351 349 348 347 345 344 342 338 328 322 317 315 317 315 314 311 310 311 309 301 292 295 298 303 299 277 273 282 282 281 317 74 328 316 202 192 174 173 169 163 165 171 172 167 170 172 173 179 184 199 190 176 191 193 192 219 242 198 44 358 360 1 10 34 73 112 146 152 162 149 133 154 158 168 188 76 79 133 146 148 149 152 155 155 156 158 161
349 347 346 346 343 341 338 334 329 322 318 314 315 315 311 311 308 306 306 304 298 288 290 296 297 291 268 266 279 253 250 307 356 328 19 139 155 161 169 167 166 168 172 173 170 174 174 177 184 184 194 186 187 191 170 183 212 246 211 72 354 360 345 349 40 101 125 148 153 156 147 148 167 156 165 181 77 93 132 139 145 146 151 155 157 160 161 162
348 345 344 344 341 339 333 328 324 318 314 314 315 312 309 309 306 306 303 300 294 283 285 289 289 279 256 249 274 244 212 228 275 36 65 130 143 160 168 165 168 168 173 177 173 176 175 183 187 181 194 185 185 188 167 185 204 227 254 359 317 328 334 339 26 129 131 145 151 151 153 163 169 160 170 169 133 142 142 140 144 146 152 157 160 162 163 163
348 346 344 342 340 338 333 328 323 317 314 315 314 310 309 308 309 311 305 298 285 279 282 279 278 254 244 232 262 247 185 171 175 94 78 125 146 163 168 165 165 167 174 178 176 178 177 188 188 185 208 185 176 183 185 202 195 198 254 311 302 316 332 316 209 146 138 143 155 157 156 164 168 172 177 162 148 153 149 145 146 149 155 160 163 165 165 165
348 346 344 342 341 339 334 329 324 320 316 316 314 309 310 312 314 315 309 297 276 275 277 268 254 229 232 208 245 239 156 164 157 105 95 121 150 164 169 166 164 168 176 176 180 182 182 191 189 192 240 195 184 187 191 212 157 155 268 287 291 327 334 280 165 149 142 142 162 168 154 158 170 188 180 157 160 157 153 151 150 154 157 161 166 166 167 168
347 345 342 340 340 340 335 329 326 322 319 319 314 310 315 317 315 311 307 296 271 268 269 251 214 212 188 211 249 235 138 160 147 120 113 113 145 163 171 169 164 172 175 175 183 184 188 191 183 193 223 179 179 188 198 222 315 252 274 271 237 341 24 129 150 150 149 147 163 165 149 159 174 203 186 154 163 161 158 158 157 159 158 163 166 167 170 170
345 343 340 337 337 337 333 328 325 324 324 320 314 315 320 319 313 309 303 286 261 254 251 224 202 193 162 228 256 228 141 157 147 136 129 120 141 158 172 171 166 176 176 178 186 186 192 186 187 201 188 167 174 178 193 209 257 256 264 258 150 149 106 117 150 156 163 157 158 163 159 174 184 198 178 156 162 163 164 165 162 164 162 164 166 167 172 172
344 340 337 335 334 334 331 325 322 325 328 322 317 319 323 320 312 306 292 260 240 231 221 205 188 162 168 234 231 181 151 157 156 147 143 142 148 155 167 170 171 181 182 186 187 185 194 189 195 204 184 201 188 144 161 195 242 245 233 249 175 182 133 113 157 164 171 152 155 174 180 182 184 184 170 160 165 166 170 172 168 167 166 167 168 170 174 174
342 337 335 333 332 332 329 321 318 325 329 324 319 322 326 321 309 304 273 221 202 200 187 179 171 163 192 232 183 172 150 154 165 157 152 153 152 155 162 170 175 178 179 186 183 180 188 190 201 211 218 236 225 230 221 201 222 220 196 217 218 204 126 122 174 172 170 147 166 195 202 157 172 171 165 164 172 174 175 176 173 170 170 171 172 174 176 177
341 336 332 329 330 331 327 318 315 323 329 323 321 326 327 322 311 285 176 136 135 144 130 152 168 174 214 195 169 178 157 154 171 165 159 157 157 158 163 172 175 174 173 172 177 178 177 178 197 210 208 228 250 229 219 196 199 207 196 192 201 197 100 157 188 190 182 145 181 215 171 132 156 161 164 170 177 182 184 180 177 175 174 175 176 177 178 179
338 333 330 326 328 330 326 314 311 323 327 320 324 326 328 332 307 203 165 123 123 111 107 137 185 198 240 170 157 176 162 161 175 172 166 160 163 160 158 163 166 173 174 166 176 176 175 183 196 210 204 205 224 220 208 195 194 204 212 201 187 165 149 176 174 193 197 139 183 225 327 109 127 154 163 172 179 186 191 184 182 181 178 178 179 179 179 178
333 330 329 326 327 329 324 310 310 324 323 315 327 326 334 347 236 186 170 145 128 99 131 201 215 232 272 149 159 174 166 169 175 176 171 164 168 163 156 155 160 167 163 158 173 173 178 190 193 203 213 215 213 214 212 201 191 192 207 204 172 167 176 168 154 175 184 165 180 210 247 109 96 159 166 172 179 186 193 188 185 187 182 181 181 181 180 179
330 327 328 328 328 329 323 308 310 322 315 305 322 316 331 6 148 155 160 147 116 149 192 205 201 236 215 171 167 154 155 164 164 173 175 165 160 160 158 155 157 159 158 159 168 175 180 187 195 191 201 213 206 213 213 203 199 194 199 196 161 183 187 132 125 155 179 190 171 172 213 189 150 159 166 172 180 188 195 190 187 191 186 182 184 184 182 182
329 327 328 328 327 328 320 307 309 318 298 250 302 299 306 296 185 180 182 172 181 201 270 182 192 270 132 156 148 135 150 155 150 162 171 162 152 152 155 157 159 160 166 169 170 180 182 182 200 198 196 201 201 213 205 203 229 199 189 195 159 165 145 98 104 132 182 199 162 174 210 197 176 166 166 173 181 193 197 192 190 193 192 185 185 187 185 185
331 329 331 330 329 325 312 302 305 306 248 210 267 266 258 230 218 197 195 224 237 252 308 202 205 276 111 137 135 142 153 152 150 161 168 164 153 148 149 156 163 171 180 173 165 180 187 188 195 198 200 192 192 211 196 143 274 218 182 178 152 154 128 109 111 125 197 217 167 184 204 188 176 171 175 178 183 197 198 193 192 194 196 191 187 188 187 187
338 339 339 334 330 319 302 298 299 281 212 193 196 238 279 289 260 89 198 235 239 248 273 246 230 256 178 136 139 153 158 161 159 165 168 163 158 152 148 160 168 184 192 170 155 169 191 205 197 195 195 177 177 197 190 157 195 224 207 182 180 180 121 105 105 124 199 234 165 175 201 176 156 157 192 202 194 201 200 195 193 192 196 194 191 190 187 186
352 354 347 338 331 319 303 299 289 228 188 177 171 210 331 335 259 1 335 262 230 232 249 240 243 251 218 185 164 157 166 164 153 160 165 165 176 172 157 173 181 182 181 171 160 166 195 214 192 184 174 160 166 173 188 196 199 213 211 202 192 158 124 119 116 123 182 235 151 147 205 167 146 158 202 209 203 208 204 196 194 194 195 196 193 190 186 183
4 2 356 349 339 328 316 301 262 191 176 163 154 191 202 149 219 354 325 277 234 212 225 226 231 221 198 202 169 165 176 166 153 161 166 173 190 186 166 180 190 177 174 179 183 176 194 208 177 167 166 172 178 176 191 203 207 214 207 215 194 155 167 152 126 127 172 252 333 124 230 158 141 162 205 209 204 212 209 199 197 196 197 201 197 191 187 184
10 8 7 3 353 344 330 308 205 181 173 164 165 190 206 203 357 350 309 272 247 181 205 215 218 206 195 181 168 180 181 159 157 164 170 179 183 174 174 185 186 178 182 190 196 193 198 185 159 165 176 187 191 187 201 211 207 212 216 230 204 156 207 190 105 135 188 219 246 257 233 155 142 171 195 204 202 207 207 201 200 198 201 205 201 195 192 188
12 9 8 7 2 354 346 341 179 176 167 164 178 196 218 296 345 339 298 258 195 149 185 195 197 202 189 173 168 184 167 126 132 158 169 185 179 171 176 183 190 185 184 193 200 202 195 155 158 172 177 192 205 199 208 221 215 210 209 226 238 191 211 207 132 194 211 190 188 243 235 143 134 165 174 180 193 201 198 197 200 202 206 207 204 200 196 193
8 4 4 7 6 5 32 85 172 172 162 171 197 209 233 298 322 323 297 243 163 137 162 171 181 173 168 170 156 172 171 127 102 148 170 192 190 187 172 169 205 197 174 186 207 210 171 154 175 184 179 191 211 213 208 213 227 219 188 201 228 238 228 218 214 228 232 167 152 241 254 146 109 94 131 161 177 190 188 194 200 201 207 209 208 205 199 196
1 359 357 2 6 14 53 81 177 173 169 191 212 228 254 292 311 312 271 217 145 132 157 155 172 157 145 158 164 185 172 136 127 131 165 193 191 212 200 168 190 177 163 183 207 195 157 160 179 185 189 198 207 215 199 200 230 217 127 172 216 226 228 222 221 233 253 28 169 210 244 201 111 74 94 149 157 159 166 186 201 204 210 213 213 210 204 200
358 359 359 1 5 17 38 81 148 172 199 211 220 239 268 287 301 285 252 192 120 135 148 127 141 141 135 152 168 173 122 136 151 121 150 186 186 219 218 178 183 165 164 194 183 155 164 179 181 180 194 203 208 214 188 194 226 208 101 180 215 219 229 222 221 233 237 257 217 188 208 218 115 102 107 114 113 109 126 164 191 209 214 214 217 214 210 207
358 1 7 8 10 23 40 101 132 180 219 220 227 246 267 279 277 253 244 145 116 168 135 128 142 144 152 152 147 139 116 120 132 116 154 182 184 229 226 161 182 157 166 211 212 143 150 167 180 190 206 209 205 208 176 200 220 169 118 190 192 202 223 217 224 228 202 242 233 180 191 209 101 89 89 80 72 64 49 46 67 225 218 214 219 217 215 214
357 2 10 16 22 28 38 93 140 208 218 230 243 248 254 249 242 235 200 107 117 149 138 154 152 152 163 150 122 129 116 84 96 122 143 151 162 200 112 124 178 156 168 208 230 115 116 103 119 171 296 332 326 169 196 223 225 168 170 184 177 181 194 202 218 229 209 229 224 179 193 219 166 74 68 60 31 13 1 11 23 354 262 217 218 216 214 215
352 359 3 8 19 21 31 68 335 281 227 249 247 233 230 221 236 237 141 96 94 136 151 163 151 167 170 151 126 125 110 88 107 140 145 140 150 159 144 163 182 163 168 184 161 128 138 146 131 89 20 347 247 199 199 221 222 206 198 188 177 170 174 192 192 211 228 225 202 165 179 223 191 91 69 56 29 14 10 9 11 0 352 315 239 221 215 215
345 353 353 352 356 3 10 344 310 297 245 239 218 220 227 210 211 114 107 168 216 127 147 145 145 163 150 127 118 121 110 92 93 112 129 140 131 114 104 164 178 174 172 170 166 154 148 143 126 123 80 26 236 201 176 193 205 208 200 189 185 173 177 195 187 200 223 211 157 164 179 176 93 88 69 52 36 27 22 15 14 8 359 350 314 248 224 216
341 347 352 349 340 341 339 318 305 273 233 213 209 226 238 206 136 67 80 139 90 70 94 141 148 154 139 120 106 101 97 88 93 104 109 126 127 105 63 38 5 276 190 158 166 166 149 131 133 166 141 21 308 219 175 179 192 201 200 190 193 185 181 194 190 198 215 196 140 158 189 171 118 93 68 62 45 35 33 26 21 16 12 7 353 313 236 217
337 340 350 352 344 331 322 316 293 250 209 199 217 229 231 143 103 79 67 71 75 95 123 144 144 142 131 120 110 95 86 80 86 132 141 138 134 121 84 54 13 324 225 163 163 175 167 149 129 15 56 11 340 316 328 266 190 193 204 206 210 208 197 198 195 195 202 186 152 158 197 183 143 114 77 77 61 46 42 37 32 28 25 22 16 11 348 220
332 335 347 356 357 340 327 355 201 211 185 202 225 216 154 96 79 54 61 57 82 125 138 157 149 137 117 103 109 83 40 85 96 103 110 103 89 78 55 35 17 353 283 191 159 170 162 119 77 47 38 2 358 360 336 310 196 181 202 223 224 238 233 217 206 204 200 183 163 166 164 105 125 128 106 85 66 51 45 41 40 36 30 27 26 23 17 6
335 338 349 358 358 351 351 90 134 154 181 223 224 85 66 57 29 2 24 1 336 128 150 164 156 144 134 123 122 103 64 104 131 108 87 86 73 52 35 32 18 1 335 270 161 171 165 107 85 106 108 37 12 15 352 316 251 175 191 207 163 13 299 252 206 209 213 198 176 161 120 105 131 133 105 85 64 50 42 38 37 36 33 30 27 21 11 4
333 337 357 360 1 11 31 139 148 156 217 252 88 76 49 44 15 352 354 330 319 241 186 160 144 169 144 136 122 120 124 126 139 136 108 107 73 31 22 43 25 10 359 335 192 170 220 120 102 109 114 80 37 345 70 3 316 237 193 171 99 47 281 260 223 192 205 204 181 167 148 145 167 152 97 71 48 40 37 35 34 33 32 30 26 21 13 4
338 331 13 9 11 28 65 135 133 156 245 240 89 84 43 45 21 359 348 328 305 261 234 145 107 290 148 139 120 118 157 167 142 124 108 112 73 14 3 39 27 21 5 321 277 83 311 134 117 97 97 115 164 226 174 127 8 325 323 73 197 219 206 216 227 200 201 207 186 171 159 145 153 119 71 38 30 28 29 33 31 29 27 27 24 20 16 12
336 245 43 24 27 43 69 128 129 280 251 106 95 90 61 55 36 23 7 329 314 291 280 107 103 34 100 129 124 103 90 135 132 132 85 59 83 28 5 13 10 17 7 329 318 68 292 212 134 114 123 160 184 244 206 132 122 222 241 211 239 264 225 207 225 215 213 210 186 176 177 146 71 57 49 38 32 26 27 33 31 28 26 25 23 20 18 16
312 262 65 42 33 39 49 101 23 344 94 81 72 74 66 57 46 38 29 13 353 342 15 98 125 121 97 101 116 98 64 95 110 103 75 71 96 70 32 8 345 356 355 338 5 26 267 246 144 129 156 197 176 37 22 28 38 204 214 201 196 240 269 244 231 238 257 231 195 189 191 146 77 48 44 50 43 32 34 37 36 32 29 28 25 22 21 18
294 268 75 48 18 28 29 69 50 56 90 81 69 68 56 28 39 42 37 45 52 37 48 72 83 106 112 101 105 105 95 103 99 89 96 81 58 73 40 2 340 335 325 304 55 15 302 245 165 143 155 159 88 52 26 12 1 350 320 299 249 244 235 222 214 211 256 276 246 204 181 127 79 46 49 58 52 45 43 40 42 40 33 30 27 24 25 22
305 320 53 11 15 30 33 84 66 58 75 79 65 55 45 8 20 33 33 42 59 55 55 64 63 73 91 86 96 113 103 89 79 80 93 75 48 46 25 354 333 326 326 71 81 15 330 294 103 111 96 89 95 72 17 7 343 340 20 13 319 284 258 239 225 205 212 244 288 234 151 113 85 67 71 76 68 58 52 44 46 46 38 33 29 26 27 26
21 35 14 351 22 23 291 100 90 77 72 85 76 57 54 40 34 38 35 33 43 53 58 61 54 54 67 76 101 114 96 66 70 81 94 90 66 44 21 359 339 325 327 76 95 10 311 270 106 107 98 104 127 135 52 324 271 249 57 26 334 319 312 292 317 308 228 201 226 227 165 125 111 89 84 90 81 67 60 53 47 47 41 33 30 28 27 27
54 49 20 6 10 296 280 96 104 99 91 103 102 83 70 50 37 39 43 39 38 53 69 61 49 59 73 81 97 97 70 61 91 86 88 100 80 48 28 12 1 358 8 20 18 351 329 288 173 166 160 160 174 183 184 197 224 158 68 36 9 10 331 285 301 285 249 229 298 251 186 127 123 110 92 90 85 71 65 61 52 47 41 32 29 28 29 29
48 68 45 37 45 51 45 53 82 107 110 109 97 90 91 71 48 44 53 54 46 51 76 71 59 78 91 93 96 86 45 65 110 117 101 103 97 64 36 24 23 34 38 22 347 327 336 23 328 256 210 192 191 184 177 168 152 115 64 47 29 16 341 294 247 227 224 140 341 282 148 125 129 120 96 86 82 73 66 61 55 47 40 35 32 30 32 32
297 83 72 59 67 76 73 55 57 98 112 108 91 77 89 99 77 50 48 55 55 55 70 75 69 89 102 102 99 89 70 75 105 137 128 113 103 72 39 35 43 41 36 18 349 327 41 71 16 343 347 19 67 68 31 16 149 131 82 58 33 20 354 301 252 229 217 156 100 60 118 139 140 124 100 84 76 74 66 58 51 44 39 39 36 34 36 35
336 16 30 63 83 90 91 69 48 64 64 48 82 65 77 105 106 63 45 51 62 59 61 63 52 73 106 108 102 89 83 90 100 115 118 107 103 96 62 47 51 37 15 10 359 317 202 122 69 55 56 54 65 70 49 30 88 101 91 70 35 24 4 328 323 42 349 218 145 105 137 151 138 121 107 87 72 69 63 56 50 42 38 39 37 37 37 35
61 69 41 44 57 65 81 60 33 61 80 67 85 96 88 99 99 76 67 70 68 39 40 74 67 65 81 82 100 109 106 104 103 107 115 112 118 126 99 68 58 40 8 39 29 319 253 116 109 105 94 80 70 71 68 67 95 99 78 68 49 32 37 57 68 53 9 346 124 127 152 149 131 129 118 88 68 62 57 55 54 47 41 39 37 37 36 33
85 98 76 61 61 56 62 51 25 73 88 80 86 82 81 93 91 77 62 71 74 44 35 100 89 77 79 64 93 124 114 106 120 123 122 118 123 138 117 93 73 58 45 72 63 340 312 99 125 137 117 98 78 82 86 72 148 158 129 112 96 57 77 85 78 75 73 89 111 126 135 122 113 118 110 94 75 61 53 49 52 50 43 39 37 36 34 32
89 99 94 93 93 80 68 59 33 99 98 92 99 90 79 88 98 94 49 28 80 81 74 101 99 88 93 95 101 105 71 48 116 130 135 138 136 130 93 79 69 65 51 67 76 331 305 131 151 182 152 120 95 105 119 120 198 179 157 163 172 160 145 140 121 108 110 118 124 130 131 127 132 134 120 116 90 63 49 38 44 47 42 38 37 35 31 29
90 101 111 109 89 66 42 62 39 167 118 101 109 118 116 97 98 102 72 43 63 96 98 102 103 95 95 95 92 88 77 70 95 111 113 95 89 82 69 52 35 69 72 74 69 320 293 149 167 217 209 141 126 161 163 161 210 210 193 182 184 186 171 149 139 124 122 140 146 157 156 136 142 163 155 146 105 66 43 30 33 38 37 34 33 32 28 24
80 89 88 279 104 64 340 109 218 245 90 71 83 111 118 113 109 105 86 68 72 87 90 96 107 108 102 96 86 78 79 78 84 95 91 71 76 87 84 80 60 26 55 84 84 17 229 163 168 215 228 141 133 188 254 215 220 214 175 159 171 175 146 130 132 102 32 168 175 188 146 112 119 163 180 157 103 60 40 28 23 25 28 28 28 28 24 20
Height
1517 1516 1515 1514 1513 1512 1511 1510 1509 1509 1508 1508 1507 1507 1506 1505 1504 1504 1503 1502 1502 1501 1501 1500 1500 1500 1499 1499 1499 1498 1498 1497 1497 1496 1496 1496 1496 1496 1497 1499 1500 1503 1505 1508 1510 1511 1513 1515 1517 1518 1520 1520 1520 1520 1520 1520 1520 1520 1518 1516 1515 1513 1515 1511 1508 1513 1511 1510 1514 1516 1516 1518 1520 1522 1523 1524 1526 1527 1528 1530 1532 1534 1535 1537 1539 1541 1545 1548
1517 1516 1515 1513 1512 1511 1510 1509 1509 1508 1507 1507 1507 1506 1505 1504 1504 1503 1502 1501 1501 1500 1500 1499 1499 1499 1499 1499 1498 1498 1497 1497 1496 1495 1494 1494 1494 1495 1496 1497 1500 1502 1504 1507 1509 1511 1513 1514 1516 1517 1518 1518 1518 1519 1519 1519 1519 1519 1515 1513 1516 1513 1510 1508 1508 1511 1511 1511 1514 1516 1517 1519 1521 1522 1523 1524 1526 1527 1528 1530 1532 1534 1536 1539 1541 1543 1546 1549
1517 1515 1514 1513 1512 1511 1510 1509 1508 1507 1507 1506 1506 1505 1504 1504 1503 1502 1501 1500 1499 1499 1499 1499 1498 1498 1498 1498 1498 1497 1497 1496 1495 1494 1493 1493 1493 1494 1495 1497 1499 1502 1505 1507 1510 1512 1514 1514 1515 1516 1517 1516 1517 1518 1518 1518 1516 1515 1515 1517 1517 1510 1506 1508 1509 1511 1512 1512 1513 1517 1518 1519 1521 1522 1523 1523 1525 1526 1526 1529 1531 1533 1536 1539 1542 1544 1546 1549
1517 1515 1514 1512 1512 1510 1509 1508 1507 1507 1506 1506 1505 1504 1504 1503 1502 1501 1500 1499 1499 1498 1498 1498 1498 1497 1497 1497 1497 1497 1496 1495 1494 1493 1492 1492 1492 1493 1495 1496 1499 1502 1506 1509 1511 1513 1514 1515 1516 1516 1516 1514 1516 1518 1516 1517 1515 1512 1514 1517 1514 1508 1507 1509 1510 1512 1513 1513 1513 1517 1518 1520 1522 1523 1523 1522 1525 1526 1525 1527 1529 1532 1535 1538 1541 1544 1546 1549
1516 1515 1514 1512 1511 1510 1509 1508 1507 1506 1505 1505 1504 1503 1503 1502 1501 1500 1500 1499 1498 1497 1497 1497 1497 1497 1497 1496 1497 1496 1496 1494 1492 1492 1492 1491 1491 1492 1494 1496 1499 1503 1507 1509 1511 1513 1514 1515 1516 1516 1514 1512 1515 1518 1515 1515 1515 1513 1510 1511 1509 1508 1510 1510 1511 1513 1514 1514 1515 1517 1519 1521 1523 1524 1524 1522 1523 1524 1524 1527 1530 1532 1535 1537 1540 1543 1546 1549
1516 1515 1513 1512 1511 1510 1508 1507 1506 1506 1505 1504 1503 1503 1502 1501 1500 1499 1499 1498 1497 1496 1496 1496 1496 1496 1496 1496 1496 1496 1496 1493 1492 1492 1492 1491 1491 1492 1495 1497 1499 1503 1507 1509 1510 1513 1513 1515 1515 1515 1513 1510 1513 1515 1515 1515 1515 1514 1509 1508 1509 1509 1510 1510 1510 1513 1514 1515 1517 1518 1519 1522 1523 1524 1525 1523 1522 1524 1526 1529 1531 1533 1536 1538 1541 1543 1546 1549
1515 1514 1513 1511 1510 1509 1508 1507 1506 1505 1504 1503 1502 1502 1501 1500 1499 1498 1498 1497 1496 1496 1495 1495 1495 1495 1495 1496 1496 1495 1495 1494 1493 1493 1492 1491 1492 1493 1495 1497 1499 1502 1506 1508 1510 1512 1513 1514 1513 1513 1512 1511 1512 1511 1512 1514 1514 1514 1511 1508 1509 1509 1509 1510 1510 1513 1515 1517 1519 1520 1520 1523 1524 1525 1525 1525 1526 1527 1529 1530 1532 1534 1536 1539 1542 1544 1546 1549
1514 1513 1512 1511 1509 1508 1507 1506 1505 1504 1503 1502 1501 1500 1499 1498 1498 1497 1496 1496 1495 1495 1495 1495 1494 1495 1495 1495 1496 1495 1494 1494 1494 1493 1493 1492 1493 1494 1496 1498 1500 1503 1507 1508 1510 1511 1512 1513 1512 1512 1512 1510 1511 1510 1511 1513 1513 1513 1511 1508 1509 1509 1509 1509 1510 1512 1515 1517 1519 1520 1521 1523 1525 1526 1526 1526 1528 1529 1530 1531 1533 1535 1537 1540 1542 1545 1547 1550
1514 1512 1511 1510 1508 1507 1506 1505 1504 1503 1502 1501 1500 1499 1498 1497 1496 1496 1495 1495 1494 1494 1494 1494 1494 1494 1494 1495 1496 1494 1492 1493 1494 1493 1493 1493 1494 1496 1497 1499 1501 1504 1507 1509 1510 1511 1512 1512 1512 1511 1510 1509 1511 1510 1511 1513 1512 1511 1510 1509 1509 1508 1509 1509 1510 1512 1515 1517 1519 1520 1521 1523 1525 1526 1526 1527 1529 1530 1531 1532 1534 1535 1538 1540 1542 1545 1547 1550
1513 1511 1510 1509 1507 1506 1505 1504 1503 1501 1500 1500 1499 1498 1497 1496 1495 1494 1494 1493 1494 1494 1493 1493 1493 1494 1494 1495 1495 1492 1491 1493 1494 1494 1494 1495 1496 1497 1498 1500 1501 1505 1507 1509 1510 1511 1512 1512 1512 1513 1512 1510 1510 1510 1510 1512 1511 1510 1510 1509 1508 1509 1509 1509 1509 1512 1515 1517 1519 1520 1521 1523 1525 1526 1525 1526 1529 1530 1532 1533 1534 1536 1538 1540 1543 1545 1548 1550
1512 1510 1509 1507 1506 1505 1504 1503 1502 1500 1499 1498 1497 1497 1496 1495 1494 1493 1493 1493 1493 1493 1493 1493 1493 1493 1494 1495 1494 1490 1491 1494 1494 1495 1495 1496 1497 1498 1500 1501 1502 1506 1507 1509 1510 1511 1512 1512 1513 1514 1512 1510 1510 1510 1510 1510 1511 1510 1510 1508 1508 1509 1509 1509 1509 1512 1515 1517 1520 1520 1523 1525 1525 1526 1524 1525 1529 1531 1532 1533 1534 1536 1538 1540 1543 1546 1548 1550
1511 1509 1508 1506 1505 1504 1503 1502 1500 1499 1498 1497 1496 1495 1495 1494 1493 1492 1492 1492 1492 1492 1492 1492 1493 1493 1494 1494 1494 1492 1492 1494 1494 1495 1496 1497 1499 1500 1501 1502 1504 1507 1508 1509 1510 1511 1512 1513 1514 1513 1511 1510 1510 1511 1510 1510 1510 1510 1508 1508 1509 1509 1510 1510 1510 1513 1514 1516 1519 1520 1526 1528 1525 1526 1523 1525 1529 1530 1532 1533 1534 1536 1538 1541 1543 1546 1548 1550
1509 1508 1507 1505 1504 1503 1502 1500 1499 1498 1497 1496 1495 1495 1494 1493 1492 1491 1491 1491 1491 1491 1492 1492 1492 1493 1493 1493 1492 1492 1493 1493 1494 1495 1496 1498 1500 1500 1502 1503 1505 1507 1509 1510 1510 1511 1513 1513 1514 1513 1512 1511 1508 1510 1510 1509 1510 1509 1506 1506 1509 1511 1513 1512 1511 1513 1513 1515 1517 1520 1529 1529 1523 1524 1523 1525 1529 1530 1532 1532 1533 1535 1537 1540 1543 1545 1547 1550
1508 1507 1505 1504 1503 1502 1501 1499 1498 1497 1496 1495 1494 1494 1493 1492 1491 1491 1490 1490 1490 1491 1491 1492 1492 1493 1493 1492 1492 1492 1493 1493 1495 1495 1496 1498 1500 1501 1502 1504 1505 1507 1508 1510 1511 1512 1512 1513 1514 1513 1513 1511 1508 1510 1509 1507 1508 1506 1505 1506 1507 1512 1516 1514 1511 1512 1513 1516 1517 1518 1527 1526 1521 1522 1523 1526 1528 1529 1530 1530 1532 1535 1537 1540 1542 1544 1547 1549
1507 1505 1504 1502 1502 1501 1499 1498 1497 1496 1496 1494 1494 1493 1492 1492 1491 1490 1491 1490 1491 1491 1491 1492 1492 1493 1492 1491 1491 1492 1493 1494 1495 1495 1497 1498 1500 1501 1502 1504 1505 1507 1508 1509 1510 1511 1512 1513 1514 1513 1512 1511 1511 1510 1507 1506 1506 1503 1509 1512 1507 1510 1518 1515 1511 1511 1512 1515 1516 1517 1523 1524 1520 1520 1523 1526 1528 1529 1529 1530 1532 1534 1536 1539 1541 1543 1546 1548
1506 1504 1502 1501 1500 1499 1498 1497 1496 1495 1495 1494 1493 1493 1492 1491 1490 1490 1490 1490 1491 1491 1491 1492 1492 1493 1491 1489 1491 1492 1493 1494 1495 1496 1497 1498 1501 1501 1502 1504 1505 1507 1508 1509 1510 1511 1513 1513 1513 1511 1510 1510 1509 1508 1507 1508 1508 1504 1508 1512 1506 1510 1519 1517 1511 1509 1509 1513 1516 1517 1522 1525 1522 1520 1523 1525 1527 1529 1528 1529 1531 1533 1535 1537 1540 1542 1544 1547
1504 1503 1501 1500 1499 1498 1497 1495 1495 1494 1494 1493 1493 1492 1491 1491 1490 1491 1491 1491 1491 1491 1492 1492 1493 1493 1490 1489 1491 1492 1493 1494 1495 1496 1497 1499 1501 1501 1502 1504 1506 1508 1509 1510 1511 1511 1513 1512 1512 1511 1510 1507 1504 1505 1510 1514 1513 1508 1505 1505 1505 1508 1515 1518 1514 1509 1508 1513 1517 1519 1522 1526 1524 1520 1522 1524 1526 1528 1527 1528 1530 1532 1535 1537 1539 1541 1543 1546
1502 1501 1499 1498 1497 1496 1495 1494 1493 1493 1493 1493 1492 1492 1492 1491 1490 1491 1491 1491 1491 1492 1492 1492 1493 1493 1490 1489 1489 1490 1492 1493 1494 1496 1497 1498 1500 1501 1503 1504 1506 1508 1509 1510 1510 1511 1512 1511 1509 1509 1509 1507 1505 1506 1512 1513 1508 1507 1506 1505 1506 1507 1507 1511 1512 1508 1509 1513 1517 1523 1525 1526 1525 1521 1521 1523 1525 1527 1526 1527 1530 1532 1534 1536 1538 1540 1542 1544
1501 1499 1498 1497 1495 1494 1493 1492 1492 1492 1492 1492 1492 1492 1491 1491 1491 1491 1491 1491 1491 1490 1489 1489 1490 1488 1485 1486 1488 1490 1491 1492 1494 1496 1497 1498 1499 1501 1503 1505 1506 1507 1508 1507 1509 1510 1509 1509 1509 1509 1508 1507 1505 1504 1506 1506 1501 1501 1503 1502 1504 1507 1507 1507 1507 1506 1508 1513 1520 1526 1527 1525 1525 1522 1520 1522 1524 1525 1526 1526 1529 1531 1533 1534 1537 1539 1541 1543
1499 1497 1496 1495 1493 1493 1492 1491 1491 1491 1491 1491 1491 1491 1491 1490 1489 1489 1490 1490 1489 1487 1486 1487 1487 1486 1484 1486 1489 1489 1490 1493 1494 1496 1497 1498 1499 1500 1502 1504 1505 1506 1505 1503 1506 1508 1507 1508 1508 1507 1503 1502 1502 1500 1501 1502 1502 1502 1502 1503 1503 1504 1507 1507 1506 1506 1506 1511 1516 1520 1521 1520 1522 1521 1519 1521 1523 1523 1524 1525 1528 1530 1532 1533 1535 1538 1540 1542
1498 1497 1495 1493 1492 1491 1490 1490 1490 1490 1490 1490 1491 1491 1490 1489 1487 1487 1489 1488 1487 1487 1487 1487 1487 1486 1486 1486 1488 1489 1490 1492 1494 1496 1496 1498 1499 1499 1501 1503 1503 1504 1502 1500 1504 1506 1507 1507 1504 1501 1498 1497 1500 1500 1502 1504 1506 1505 1502 1504 1503 1502 1506 1506 1506 1506 1505 1509 1510 1510 1514 1516 1517 1520 1521 1521 1522 1521 1522 1523 1526 1528 1530 1532 1534 1536 1539 1541
1497 1496 1493 1492 1491 1490 1489 1489 1489 1489 1489 1490 1491 1491 1491 1490 1489 1489 1489 1486 1485 1486 1486 1486 1486 1486 1486 1487 1487 1488 1489 1489 1493 1495 1496 1498 1498 1496 1498 1500 1500 1500 1498 1500 1503 1507 1508 1504 1498 1497 1496 1498 1501 1502 1504 1505 1506 1506 1502 1503 1504 1501 1504 1507 1506 1504 1504 1508 1507 1507 1511 1513 1515 1519 1520 1519 1519 1520 1521 1522 1525 1527 1529 1531 1532 1535 1537 1540
1496 1494 1493 1492 1490 1489 1488 1487 1488 1488 1489 1490 1491 1491 1491 1490 1490 1490 1490 1486 1483 1484 1485 1485 1485 1486 1486 1486 1486 1487 1487 1486 1490 1494 1495 1497 1496 1494 1496 1497 1496 1497 1498 1500 1501 1505 1507 1500 1493 1495 1498 1501 1504 1504 1505 1506 1506 1504 1502 1504 1503 1500 1504 1509 1508 1506 1505 1506 1505 1507 1509 1508 1513 1519 1518 1518 1519 1520 1521 1522 1524 1527 1528 1530 1531 1533 1536 1538
1496 1494 1493 1491 1489 1488 1487 1487 1487 1487 1489 1489 1490 1491 1490 1490 1490 1489 1489 1485 1482 1482 1483 1484 1484 1485 1485 1485 1486 1486 1485 1485 1488 1491 1494 1495 1495 1495 1494 1492 1494 1496 1498 1498 1498 1500 1500 1493 1491 1497 1500 1502 1504 1505 1506 1507 1506 1503 1502 1503 1501 1500 1504 1506 1507 1508 1506 1506 1505 1508 1511 1509 1513 1521 1520 1517 1518 1520 1521 1522 1524 1526 1528 1530 1531 1533 1535 1537
1496 1495 1493 1491 1489 1488 1486 1487 1487 1487 1489 1490 1490 1490 1489 1490 1489 1489 1489 1484 1481 1481 1482 1483 1484 1484 1485 1484 1485 1485 1484 1486 1488 1490 1493 1494 1494 1493 1491 1491 1493 1495 1497 1497 1497 1497 1495 1493 1494 1499 1501 1502 1504 1505 1504 1505 1505 1504 1503 1501 1500 1502 1505 1505 1507 1508 1510 1513 1506 1506 1520 1520 1513 1518 1522 1518 1519 1520 1520 1521 1524 1527 1528 1529 1530 1531 1534 1536
1496 1495 1493 1491 1489 1487 1487 1487 1487 1488 1489 1490 1490 1489 1489 1490 1488 1489 1488 1480 1477 1479 1480 1482 1482 1483 1484 1484 1485 1485 1485 1488 1489 1490 1492 1493 1493 1492 1491 1491 1491 1492 1494 1495 1496 1494 1493 1495 1496 1499 1502 1503 1505 1504 1502 1502 1506 1506 1500 1498 1501 1503 1506 1506 1507 1508 1510 1512 1505 1502 1518 1525 1519 1520 1521 1520 1521 1520 1519 1521 1523 1526 1527 1527 1529 1530 1532 1534
1497 1495 1493 1491 1490 1488 1488 1487 1488 1489 1489 1489 1489 1488 1489 1489 1487 1489 1487 1482 1480 1479 1478 1481 1481 1481 1483 1483 1484 1484 1484 1487 1490 1492 1492 1492 1493 1492 1491 1490 1491 1492 1491 1495 1500 1495 1492 1498 1498 1499 1502 1503 1505 1504 1500 1500 1506 1504 1496 1498 1502 1503 1505 1506 1506 1508 1505 1505 1505 1502 1506 1517 1526 1527 1520 1518 1521 1521 1520 1521 1521 1523 1525 1526 1527 1529 1530 1532
1496 1495 1493 1491 1490 1489 1489 1488 1488 1489 1489 1489 1488 1489 1489 1488 1488 1488 1486 1488 1487 1479 1477 1481 1481 1482 1483 1484 1484 1484 1482 1483 1487 1492 1492 1492 1493 1492 1489 1488 1489 1491 1491 1495 1500 1495 1493 1498 1499 1499 1502 1503 1501 1499 1496 1500 1504 1500 1495 1499 1500 1501 1503 1502 1504 1506 1503 1507 1511 1505 1501 1514 1529 1525 1516 1517 1520 1523 1522 1520 1520 1521 1522 1524 1526 1527 1529 1531
1496 1494 1492 1492 1490 1489 1489 1489 1489 1489 1489 1488 1488 1489 1488 1487 1489 1485 1483 1489 1485 1477 1479 1481 1481 1483 1483 1483 1484 1484 1483 1484 1485 1490 1492 1492 1493 1491 1488 1487 1487 1490 1493 1493 1493 1493 1494 1497 1496 1497 1500 1500 1497 1495 1495 1500 1501 1497 1496 1500 1499 1501 1502 1501 1505 1504 1506 1516 1515 1504 1501 1515 1531 1523 1515 1521 1524 1525 1523 1517 1518 1519 1520 1523 1524 1526 1528 1529
1496 1494 1493 1492 1490 1490 1489 1488 1489 1488 1488 1488 1488 1488 1487 1488 1488 1484 1488 1490 1480 1477 1481 1480 1480 1482 1481 1481 1484 1484 1484 1486 1486 1489 1492 1491 1492 1491 1489 1490 1489 1489 1493 1493 1493 1494 1495 1497 1497 1498 1501 1500 1498 1498 1498 1499 1498 1496 1499 1502 1502 1503 1502 1503 1504 1502 1514 1523 1510 1500 1498 1507 1530 1529 1519 1527 1529 1525 1523 1520 1520 1519 1518 1521 1522 1524 1526 1527
1495 1494 1493 1492 1491 1490 1489 1489 1489 1488 1487 1488 1487 1487 1488 1486 1482 1485 1492 1486 1478 1479 1481 1479 1480 1480 1478 1480 1484 1484 1484 1487 1487 1487 1489 1489 1490 1490 1491 1492 1490 1491 1495 1495 1496 1497 1496 1498 1500 1501 1502 1501 1500 1500 1501 1499 1497 1498 1501 1502 1506 1509 1508 1510 1510 1511 1525 1523 1501 1497 1497 1501 1526 1533 1523 1527 1528 1522 1522 1522 1522 1521 1519 1520 1520 1521 1523 1525
1495 1495 1493 1492 1491 1489 1489 1489 1488 1487 1487 1486 1486 1487 1486 1484 1482 1484 1485 1481 1481 1482 1478 1479 1480 1478 1478 1479 1483 1484 1484 1488 1489 1487 1487 1487 1489 1491 1492 1492 1490 1495 1500 1496 1497 1498 1497 1498 1500 1502 1503 1501 1501 1500 1500 1501 1499 1500 1499 1501 1511 1517 1521 1524 1522 1520 1523 1513 1497 1496 1499 1508 1527 1530 1524 1527 1525 1521 1522 1521 1521 1522 1521 1520 1519 1519 1520 1523
1495 1494 1493 1491 1490 1488 1488 1487 1486 1486 1485 1485 1486 1485 1481 1485 1490 1486 1478 1478 1483 1482 1478 1479 1479 1477 1479 1482 1485 1485 1486 1490 1490 1489 1489 1488 1490 1493 1494 1493 1492 1495 1495 1492 1496 1499 1502 1503 1500 1501 1502 1501 1501 1499 1501 1502 1500 1500 1498 1500 1509 1516 1527 1534 1526 1521 1517 1506 1498 1496 1500 1516 1531 1529 1524 1525 1525 1523 1522 1521 1522 1522 1521 1521 1520 1518 1519 1520
1495 1494 1493 1491 1489 1488 1487 1485 1485 1484 1484 1484 1485 1482 1481 1489 1491 1484 1478 1479 1481 1480 1480 1479 1478 1478 1480 1484 1487 1486 1488 1493 1492 1489 1490 1489 1491 1494 1495 1496 1496 1493 1487 1488 1493 1496 1504 1510 1503 1501 1503 1501 1501 1500 1500 1498 1495 1496 1492 1494 1500 1501 1512 1521 1516 1515 1513 1502 1501 1503 1505 1515 1529 1532 1525 1522 1524 1524 1524 1524 1524 1523 1521 1521 1521 1519 1519 1519
1495 1494 1493 1491 1488 1487 1485 1484 1484 1482 1483 1484 1480 1479 1485 1491 1488 1482 1483 1483 1480 1480 1481 1479 1478 1481 1485 1486 1488 1487 1487 1494 1493 1490 1491 1492 1495 1499 1499 1500 1500 1496 1490 1491 1493 1492 1499 1507 1503 1502 1503 1502 1502 1502 1499 1498 1496 1493 1490 1494 1498 1492 1493 1500 1498 1497 1497 1499 1504 1507 1509 1511 1518 1526 1522 1519 1524 1524 1525 1526 1523 1524 1523 1521 1522 1521 1520 1521
1495 1493 1493 1491 1488 1487 1485 1484 1484 1482 1483 1481 1478 1482 1489 1491 1488 1486 1486 1485 1483 1482 1480 1480 1479 1481 1487 1489 1489 1489 1488 1491 1493 1493 1496 1498 1500 1504 1504 1503 1503 1500 1497 1494 1493 1494 1501 1506 1504 1503 1504 1502 1503 1502 1499 1501 1500 1495 1495 1498 1495 1489 1490 1497 1500 1494 1491 1503 1506 1503 1514 1521 1520 1524 1522 1520 1525 1524 1525 1526 1524 1525 1525 1523 1523 1523 1522 1522
1494 1493 1493 1492 1489 1487 1486 1485 1483 1483 1482 1478 1480 1489 1490 1489 1490 1489 1488 1486 1486 1484 1479 1481 1485 1484 1486 1489 1490 1490 1490 1491 1492 1494 1499 1500 1503 1509 1507 1505 1505 1503 1502 1499 1495 1494 1498 1505 1505 1502 1504 1504 1503 1503 1500 1499 1499 1497 1498 1495 1491 1494 1495 1497 1505 1504 1503 1510 1505 1498 1514 1525 1523 1528 1527 1523 1526 1526 1525 1525 1525 1526 1526 1525 1525 1525 1524 1523
1494 1493 1493 1491 1489 1487 1486 1485 1484 1483 1481 1479 1486 1493 1489 1489 1492 1490 1489 1488 1487 1484 1478 1481 1488 1486 1484 1488 1493 1492 1490 1493 1493 1494 1499 1501 1506 1512 1509 1507 1506 1503 1504 1502 1499 1495 1496 1504 1507 1502 1504 1504 1501 1503 1501 1498 1498 1498 1496 1492 1494 1503 1504 1501 1506 1510 1511 1512 1507 1505 1513 1519 1523 1530 1533 1531 1530 1529 1526 1526 1527 1527 1527 1527 1527 1527 1526 1524
1493 1492 1492 1492 1490 1489 1488 1487 1486 1482 1480 1482 1488 1492 1490 1491 1492 1491 1491 1490 1487 1485 1480 1481 1486 1486 1485 1488 1493 1494 1491 1493 1495 1496 1501 1504 1508 1513 1511 1510 1508 1505 1505 1502 1499 1498 1496 1502 1508 1504 1502 1503 1501 1501 1503 1501 1497 1496 1496 1494 1495 1498 1499 1500 1497 1497 1502 1504 1508 1518 1521 1522 1529 1533 1535 1538 1535 1532 1530 1529 1529 1530 1530 1530 1529 1529 1528 1526
1493 1491 1491 1493 1491 1490 1489 1487 1486 1482 1483 1486 1489 1491 1492 1492 1492 1492 1492 1491 1489 1486 1484 1484 1484 1486 1490 1490 1491 1495 1495 1495 1497 1498 1502 1506 1509 1513 1513 1513 1510 1507 1507 1502 1500 1501 1496 1498 1506 1505 1501 1503 1506 1508 1510 1509 1503 1500 1498 1497 1499 1497 1495 1499 1494 1489 1494 1496 1501 1516 1522 1524 1532 1535 1535 1537 1536 1534 1533 1531 1532 1533 1533 1532 1531 1530 1529 1527
1493 1489 1491 1493 1492 1491 1490 1488 1487 1485 1486 1490 1491 1492 1494 1494 1493 1493 1492 1491 1490 1489 1487 1487 1485 1487 1492 1493 1493 1496 1497 1498 1499 1500 1504 1508 1510 1512 1513 1515 1513 1510 1506 1503 1502 1503 1500 1497 1501 1504 1503 1507 1514 1516 1515 1515 1511 1507 1503 1501 1503 1500 1498 1506 1506 1495 1493 1495 1493 1501 1517 1529 1534 1536 1536 1536 1537 1535 1534 1533 1533 1535 1535 1534 1533 1532 1530 1529
1492 1489 1492 1493 1492 1491 1489 1488 1490 1489 1489 1493 1495 1496 1497 1497 1495 1494 1493 1492 1491 1491 1490 1490 1491 1491 1492 1494 1495 1496 1497 1501 1502 1502 1506 1510 1511 1513 1515 1516 1515 1511 1507 1505 1506 1507 1505 1501 1502 1508 1510 1513 1518 1518 1516 1517 1515 1510 1508 1507 1505 1502 1501 1506 1509 1500 1495 1498 1495 1495 1519 1539 1537 1535 1538 1537 1537 1537 1536 1536 1534 1535 1537 1536 1535 1534 1532 1531
1493 1492 1494 1493 1492 1491 1489 1490 1492 1492 1494 1498 1499 1499 1499 1498 1496 1495 1495 1494 1493 1493 1493 1494 1495 1496 1497 1497 1498 1497 1500 1506 1508 1507 1509 1513 1515 1518 1518 1516 1515 1512 1508 1507 1508 1509 1508 1505 1509 1516 1517 1515 1516 1516 1515 1515 1513 1511 1510 1510 1507 1507 1506 1505 1506 1503 1497 1499 1500 1501 1522 1542 1539 1536 1539 1537 1537 1538 1537 1537 1536 1536 1538 1537 1537 1536 1534 1533
1496 1496 1495 1494 1493 1491 1489 1490 1493 1495 1497 1499 1499 1500 1500 1500 1499 1498 1497 1497 1496 1496 1496 1498 1498 1498 1500 1499 1499 1500 1502 1507 1512 1512 1511 1514 1517 1520 1520 1517 1515 1513 1511 1512 1512 1511 1511 1509 1511 1518 1521 1521 1520 1519 1517 1515 1512 1512 1512 1513 1512 1510 1510 1508 1506 1506 1503 1505 1506 1503 1517 1535 1537 1537 1539 1536 1537 1538 1537 1539 1539 1538 1539 1539 1538 1537 1536 1535
1496 1496 1496 1495 1494 1493 1492 1493 1493 1495 1498 1498 1499 1500 1500 1502 1503 1502 1500 1500 1500 1499 1499 1501 1501 1500 1501 1501 1501 1503 1502 1504 1511 1514 1513 1515 1518 1521 1521 1519 1517 1515 1516 1518 1516 1513 1514 1513 1514 1516 1518 1522 1524 1523 1519 1514 1512 1514 1515 1516 1515 1512 1512 1511 1507 1508 1511 1513 1512 1510 1519 1533 1537 1537 1538 1538 1538 1539 1539 1540 1541 1541 1541 1541 1540 1539 1538 1536
1495 1495 1496 1496 1496 1496 1497 1497 1495 1495 1497 1498 1500 1501 1501 1503 1505 1504 1503 1503 1504 1503 1502 1504 1504 1502 1503 1503 1504 1506 1504 1504 1508 1512 1514 1516 1518 1521 1521 1520 1520 1519 1520 1520 1518 1515 1515 1517 1519 1519 1517 1520 1524 1524 1520 1514 1513 1518 1520 1518 1517 1515 1513 1511 1509 1510 1511 1512 1520 1525 1525 1530 1536 1537 1539 1541 1540 1540 1540 1541 1542 1543 1542 1542 1542 1541 1540 1538
1497 1497 1498 1498 1498 1498 1498 1499 1499 1498 1498 1499 1502 1504 1503 1503 1504 1505 1505 1506 1506 1506 1505 1506 1506 1504 1505 1505 1506 1509 1510 1508 1510 1513 1515 1517 1519 1521 1522 1521 1520 1522 1521 1520 1519 1517 1516 1519 1522 1523 1522 1522 1524 1524 1521 1519 1519 1521 1522 1521 1520 1518 1515 1514 1514 1516 1514 1514 1526 1533 1527 1527 1536 1539 1541 1543 1542 1541 1542 1543 1544 1544 1543 1544 1543 1542 1541 1540
1499 1502 1503 1501 1501 1500 1500 1501 1501 1501 1501 1502 1504 1505 1504 1504 1505 1506 1507 1507 1507 1507 1507 1508 1509 1507 1507 1508 1508 1511 1514 1514 1517 1519 1518 1519 1520 1520 1521 1522 1521 1522 1521 1520 1520 1518 1516 1521 1523 1523 1525 1525 1524 1525 1524 1523 1524 1524 1524 1524 1523 1521 1519 1520 1520 1521 1520 1521 1528 1533 1529 1530 1537 1540 1542 1545 1544 1544 1545 1545 1545 1546 1545 1545 1544 1543 1543 1541
1501 1503 1504 1504 1503 1503 1504 1505 1504 1502 1503 1504 1505 1506 1506 1506 1508 1509 1508 1508 1509 1508 1507 1510 1512 1510 1510 1510 1510 1513 1516 1517 1520 1523 1521 1521 1522 1520 1521 1523 1522 1522 1521 1520 1522 1521 1519 1523 1525 1523 1526 1528 1527 1527 1527 1526 1526 1526 1526 1526 1525 1523 1522 1523 1523 1522 1523 1527 1528 1530 1532 1535 1539 1541 1543 1545 1546 1546 1547 1546 1546 1546 1546 1546 1545 1545 1544 1543
1503 1504 1505 1504 1505 1506 1506 1506 1505 1503 1504 1505 1507 1509 1508 1508 1509 1511 1510 1509 1511 1511 1510 1511 1512 1512 1512 1512 1512 1516 1518 1516 1518 1522 1522 1522 1523 1521 1522 1524 1522 1523 1523 1522 1523 1522 1522 1527 1527 1523 1526 1530 1529 1528 1528 1528 1528 1527 1528 1527 1525 1525 1525 1525 1525 1524 1525 1528 1529 1531 1536 1541 1542 1543 1544 1545 1546 1546 1547 1547 1547 1547 1547 1547 1546 1546 1545 1545
1505 1506 1505 1505 1506 1508 1508 1507 1506 1504 1504 1506 1508 1510 1510 1510 1510 1512 1512 1512 1512 1512 1512 1513 1513 1513 1514 1515 1516 1518 1519 1518 1518 1521 1522 1522 1523 1523 1524 1524 1524 1524 1524 1524 1525 1523 1523 1527 1528 1525 1526 1529 1530 1529 1528 1528 1528 1528 1529 1528 1526 1526 1526 1525 1526 1526 1526 1529 1532 1533 1535 1539 1542 1543 1543 1544 1545 1545 1547 1548 1547 1547 1548 1548 1547 1547 1547 1547
1507 1508 1507 1505 1506 1509 1508 1507 1506 1505 1506 1509 1511 1511 1512 1512 1512 1513 1515 1516 1515 1515 1515 1515 1515 1515 1516 1519 1521 1521 1522 1522 1522 1523 1524 1524 1524 1525 1525 1526 1526 1525 1525 1526 1526 1525 1524 1525 1527 1526 1525 1527 1530 1530 1528 1528 1530 1529 1526 1525 1526 1526 1527 1528 1528 1529 1529 1528 1530 1531 1531 1536 1542 1542 1541 1542 1543 1546 1548 1548 1548 1548 1548 1549 1549 1548 1548 1548